Location: Hohe Wand Kleine Kanzel
(47.8330°N, 16.0170°E)
Time: 15:30:55
(UTC+02:00)

UKube-1 - Visible Passes

Search period start: 24 September 2021 00:00
Search period end: 04 October 2021 00:00
Orbit: 611 x 618 km, 98.4° (Epoch: 24 September)

Date Brightness Start Highest point End Pass type
(mag) Time Alt. Az. Time Alt. Az. Time Alt. Az.
24 Sep ? 21:32:35 10° NNE 21:33:15 14° NNE 21:33:15 14° NNE visible
24 Sep ? 23:09:34 10° NNW 23:10:17 13° NNW 23:10:17 13° NNW visible
25 Sep ? 21:48:09 10° NNE 21:48:49 14° NNE 21:48:49 14° NNE visible
26 Sep ? 22:03:46 10° N 22:04:23 14° N 22:04:23 14° N visible
27 Sep ? 22:19:28 10° N 22:19:56 13° N 22:19:56 13° N visible
28 Sep ? 22:35:14 10° N 22:35:29 11° N 22:35:29 11° N visible
